Weather History for Frankfort, MI

Change the Weather History Date:

Saturday, December 28, 2013

  Actual Average (KTVC) Record (KTVC)
Temperature  
Mean Temperature 36 °F 24 °F  
Max Temperature 41 °F 29 °F 59 °F (1984)
Min Temperature 32 °F 18 °F -8 °F (1964)
Degree Days  
Heating Degree Days 28 41  
Month to date heating degree days 1062  
Since 1 July heating degree days 2681  
Moisture  
Dew Point 32 °F    
Average Humidity 80    
Maximum Humidity 94    
Minimum Humidity 70    
Precipitation  
Precipitation 0.00 in 0.08 in 0.95 in (1968)
Month to date precipitation 2.23  
Year to date precipitation 32.79  
Sea Level Pressure  
Sea Level Pressure 29.88 in    
Wind  
Wind Speed 8 mph (SW)    
Max Wind Speed 15 mph    
Max Gust Speed 24 mph    
Visibility 10 miles    
Events      
T = Trace of Precipitation, MM = Missing Value Source: NWS Daily Summary

Daily Weather History Graph

Daily Weather History Graph

Search for Another Location

Airport:

Trip Planner

Search our weather history database for the weather conditions in past years. The results will help you decide how hot, cold, wet, or windy it might be!

Date:

Astronomy

Dec. 28, 2013 Rise Set
Actual Time 8:21 AM EST 5:11 PM EST
Civil Twilight 7:47 AM EST 5:45 PM EST
Nautical Twilight 7:10 AM EST 6:22 PM EST
Astronomical Twilight 6:35 AM EST 6:57 PM EST
Moon 3:51 AM EST (12/28) 2:07 PM EST (12/28)
Length of Visible Light 9h 57m
Length of Day
8h 50m
Waning Crescent, 19% of the Moon is Illuminated
Dec 28
Waning Crescent
Jan 1
New
Jan 7
First Quarter
Jan 15
Full
Jan 24
Last Quarter

Hourly Weather History & Observations

Time (EST) Temp. Windchill Dew Point Humidity Pressure Visibility Wind Dir Wind Speed Gust Speed Precip Events Conditions
12:16 AM 37.4 °F 29.8 °F 31.3 °F 79% 29.93 in 10.0 mi West 11.5 mph 16.1 mph N/A   Overcast
12:31 AM 37.2 °F 29.1 °F 31.1 °F 79% 29.93 in 10.0 mi WNW 12.7 mph 18.4 mph N/A   Overcast
12:51 AM 36.9 °F 29.1 °F 31.1 °F 80% 29.93 in 10.0 mi WNW 11.5 mph - N/A   Overcast
1:12 AM 36.7 °F 29.4 °F 31.5 °F 81% 29.93 in 10.0 mi WNW 10.4 mph 16.1 mph N/A   Overcast
1:32 AM 36.5 °F 30.3 °F 31.1 °F 81% 29.93 in 10.0 mi WNW 8.1 mph - N/A   Overcast
1:52 AM 36.5 °F 30.3 °F 30.9 °F 80% 29.93 in 10.0 mi WNW 8.1 mph - N/A   Overcast
2:12 AM 36.3 °F 29.5 °F 30.9 °F 81% 29.93 in 10.0 mi WNW 9.2 mph - N/A   Overcast
2:32 AM 36.5 °F 29.7 °F 30.9 °F 80% 29.94 in 10.0 mi West 9.2 mph - N/A   Overcast
2:52 AM 36.1 °F 28.2 °F 30.9 °F 81% 29.95 in 10.0 mi WNW 11.5 mph - N/A   Overcast
3:12 AM 36.1 °F 31.4 °F 30.7 °F 81% 29.96 in 10.0 mi WNW 5.8 mph - N/A   Overcast
3:32 AM 36.1 °F 31.4 °F 30.2 °F 79% 29.96 in 10.0 mi WNW 5.8 mph - N/A   Overcast
3:53 AM 36.0 °F 30.3 °F 30.7 °F 81% 29.96 in 10.0 mi WNW 6.9 mph - N/A   Overcast
4:13 AM 35.8 °F 30.9 °F 30.7 °F 82% 29.96 in 10.0 mi WNW 5.8 mph - N/A   Overcast
4:33 AM 36.0 °F 30.3 °F 30.7 °F 81% 29.97 in 10.0 mi WNW 6.9 mph - N/A   Overcast
4:53 AM 36.3 °F 32.5 °F 30.9 °F 81% 29.97 in 10.0 mi West 4.6 mph - N/A   Overcast
5:14 AM 36.1 °F 32.3 °F 31.8 °F 84% 29.97 in 10.0 mi West 4.6 mph - N/A   Overcast
5:34 AM 36.0 °F 33.3 °F 31.5 °F 84% 29.96 in 10.0 mi West 3.5 mph - N/A   Overcast
5:54 AM 36.1 °F - 31.6 °F 84% 29.97 in 10.0 mi Calm Calm - N/A   Overcast
6:15 AM 35.6 °F 32.8 °F 31.8 °F 86% 29.96 in 10.0 mi SSW 3.5 mph - N/A   Overcast
6:36 AM 35.6 °F 31.7 °F 31.6 °F 85% 29.97 in 10.0 mi SW 4.6 mph - N/A   Scattered Clouds
6:51 AM 34.9 °F 32.0 °F 31.5 °F 87% 29.97 in 10.0 mi WSW 3.5 mph - N/A   Clear
7:12 AM 34.7 °F 31.8 °F 31.5 °F 88% 29.97 in 10.0 mi SW 3.5 mph - N/A   Clear
7:32 AM 34.5 °F 31.6 °F 31.6 °F 89% 29.97 in 10.0 mi SW 3.5 mph - N/A   Clear
7:52 AM 33.8 °F 30.8 °F 31.5 °F 91% 29.98 in 10.0 mi SSW 3.5 mph - N/A   Clear
8:12 AM 34.2 °F 31.2 °F 31.8 °F 91% 29.98 in 10.0 mi SW 3.5 mph - N/A   Scattered Clouds
8:33 AM 34.5 °F - 31.8 °F 90% 29.98 in 10.0 mi Calm Calm - N/A   Mostly Cloudy
8:53 AM 33.6 °F - 31.5 °F 92% 29.98 in 10.0 mi Calm Calm - N/A   Scattered Clouds
9:13 AM 32.4 °F 29.1 °F 30.6 °F 93% 29.97 in 7.0 mi SE 3.5 mph - N/A   Scattered Clouds
9:33 AM 32.0 °F 26.4 °F 30.0 °F 92% 29.96 in 7.0 mi SE 5.8 mph - N/A   Scattered Clouds
9:53 AM 32.9 °F 28.5 °F 31.1 °F 93% 29.96 in 7.0 mi SSE 4.6 mph - N/A   Mostly Cloudy
10:13 AM 32.9 °F 28.5 °F 31.3 °F 94% 29.97 in 7.0 mi South 4.6 mph - N/A   Mostly Cloudy
10:33 AM 34.9 °F 29.9 °F 32.0 °F 89% 29.97 in 10.0 mi South 5.8 mph - N/A   Overcast
10:53 AM 36.1 °F 29.9 °F 32.2 °F 86% 29.97 in 10.0 mi South 8.1 mph - N/A   Overcast
11:14 AM 36.9 °F 30.1 °F 32.5 °F 84% 29.97 in 10.0 mi SSW 9.2 mph - N/A   Overcast
11:34 AM 38.1 °F 31.7 °F 32.9 °F 81% 29.96 in 10.0 mi SW 9.2 mph - N/A   Mostly Cloudy
11:54 AM 38.7 °F 32.9 °F 33.1 °F 80% 29.95 in 10.0 mi SSW 8.1 mph - N/A   Scattered Clouds
12:14 PM 38.8 °F 31.6 °F 33.3 °F 80% 29.93 in 10.0 mi South 11.5 mph 17.3 mph N/A   Clear
12:34 PM 39.0 °F 31.8 °F 33.4 °F 80% 29.91 in 10.0 mi SSW 11.5 mph 18.4 mph N/A   Clear
12:55 PM 39.4 °F 32.7 °F 32.9 °F 78% 29.90 in 10.0 mi SSW 10.4 mph - N/A   Clear
1:15 PM 39.2 °F 32.0 °F 33.3 °F 79% 29.88 in 10.0 mi SSW 11.5 mph 18.4 mph N/A   Clear
1:35 PM 39.7 °F 34.3 °F 34.0 °F 80% 29.87 in 10.0 mi SW 8.1 mph 19.6 mph N/A   Clear
1:56 PM 40.3 °F 36.3 °F 33.8 °F 78% 29.86 in 10.0 mi SSW 5.8 mph - N/A   Clear
2:16 PM 41.2 °F 37.3 °F 34.2 °F 76% 29.85 in 10.0 mi SSW 5.8 mph - N/A   Clear
2:31 PM 41.5 °F 36.4 °F 34.5 °F 76% 29.85 in 10.0 mi SW 8.1 mph - N/A   Clear
2:51 PM 40.3 °F 34.9 °F 34.2 °F 79% 29.84 in 10.0 mi SSW 8.1 mph 17.3 mph N/A   Clear
3:12 PM 40.8 °F 35.6 °F 34.0 °F 77% 29.82 in 10.0 mi SW 8.1 mph - N/A   Clear
3:32 PM 41.9 °F 35.9 °F 33.3 °F 71% 29.82 in 10.0 mi SSW 10.4 mph - N/A   Clear
3:52 PM 40.6 °F 35.4 °F 33.8 °F 77% 29.82 in 10.0 mi SSW 8.1 mph 16.1 mph N/A   Clear
4:12 PM 40.6 °F 35.4 °F 33.8 °F 77% 29.82 in 10.0 mi SW 8.1 mph - N/A   Clear
4:32 PM 40.3 °F 33.0 °F 34.0 °F 78% 29.83 in 10.0 mi SSW 12.7 mph 18.4 mph N/A   Clear
4:52 PM 40.3 °F 34.4 °F 33.8 °F 78% 29.83 in 10.0 mi SSW 9.2 mph - N/A   Clear
5:12 PM 40.1 °F 34.7 °F 33.1 °F 76% 29.82 in 10.0 mi SSW 8.1 mph 19.6 mph N/A   Clear
5:33 PM 41.0 °F 34.7 °F 32.5 °F 72% 29.82 in 10.0 mi South 10.4 mph 18.4 mph N/A   Clear
5:53 PM 41.0 °F 34.7 °F 32.2 °F 71% 29.82 in 10.0 mi South 10.4 mph - N/A   Clear
6:13 PM 41.2 °F 35.0 °F 32.2 °F 70% 29.82 in 10.0 mi South 10.4 mph 21.9 mph N/A   Clear
6:33 PM 41.4 °F 36.2 °F 32.5 °F 71% 29.81 in 10.0 mi SSW 8.1 mph 21.9 mph N/A   Clear
6:53 PM 41.2 °F 35.0 °F 32.5 °F 71% 29.80 in 10.0 mi South 10.4 mph 18.4 mph N/A   Clear
7:13 PM 41.2 °F 35.0 °F 32.7 °F 72% 29.79 in 10.0 mi South 10.4 mph 20.7 mph N/A   Clear
7:33 PM 41.0 °F 36.4 °F 32.9 °F 73% 29.79 in 10.0 mi South 6.9 mph - N/A   Clear
7:54 PM 41.0 °F 35.2 °F 32.9 °F 73% 29.78 in 10.0 mi South 9.2 mph 19.6 mph N/A   Clear
8:14 PM 41.0 °F 35.2 °F 32.9 °F 73% 29.78 in 10.0 mi SSW 9.2 mph - N/A   Clear
8:34 PM 41.4 °F 35.2 °F 32.9 °F 72% 29.77 in 10.0 mi SSW 10.4 mph 21.9 mph N/A   Clear
8:54 PM 41.4 °F 35.2 °F 33.1 °F 72% 29.77 in 10.0 mi SSW 10.4 mph 18.4 mph N/A   Clear
9:14 PM 41.4 °F 34.7 °F 33.3 °F 73% 29.77 in 10.0 mi SSW 11.5 mph 18.4 mph N/A   Clear
9:34 PM 41.2 °F 34.1 °F 33.4 °F 74% 29.77 in 10.0 mi SSW 12.7 mph 20.7 mph N/A   Clear
9:55 PM 41.0 °F 33.1 °F 33.8 °F 76% 29.77 in 10.0 mi South 15.0 mph 24.2 mph N/A   Clear
10:15 PM 40.8 °F 34.5 °F 34.0 °F 77% 29.76 in 10.0 mi SSW 10.4 mph 21.9 mph N/A   Clear
10:35 PM 40.6 °F 33.8 °F 34.2 °F 78% 29.75 in 10.0 mi SSW 11.5 mph 18.4 mph N/A   Scattered Clouds
10:55 PM 40.6 °F 34.3 °F 34.3 °F 78% 29.75 in 10.0 mi SSW 10.4 mph 20.7 mph N/A   Scattered Clouds
11:15 PM 40.5 °F 34.6 °F 34.5 °F 79% 29.74 in 10.0 mi SSW 9.2 mph 16.1 mph N/A   Scattered Clouds
11:35 PM 40.5 °F 33.2 °F 34.7 °F 80% 29.74 in 10.0 mi South 12.7 mph 21.9 mph N/A   Clear
11:55 PM 40.8 °F 33.7 °F 34.7 °F 79% 29.73 in 10.0 mi SSW 12.7 mph 17.3 mph N/A   Clear